Location: Bocchiglicro
(39.4167°N, 16.7500°E)
Time: 18:28:54
(UTC+00:00)

Cosmos 1782 - Pass Details

Date: 07 June 2020
Orbit: 536 x 553 km, 82.5° (Epoch: 04 July)

Event Time Altitude Azimuth Distance (km) Brightness Sun altitude
Rises 02:50:11 0° 353° (N) 2,724 6.8 -6.6°
Reaches altitude 10° 02:52:21 10° 355° (N) 1,824 5.9 -6.3°
Maximum altitude 02:56:22 78° 82° (E) 560 3.0 -5.6°
Drops below altitude 10° 03:00:20 10° 170° (S) 1,798 5.2 -5.0°
Sets 03:02:28 0° 171° (S) 2,683 6.1 -4.7°
